|
|
Asteroid 2012 BA35
(Preview)
Orbital elements:
2012 BA35 Earth MOID = 0.0183 AU
Epoch 2012 Mar. 14.0 TT = JDT 2456000.5 MPC
M 137.14997 (2000.0) P Q
n 0.88927671 Peri. 234.13195 +0.94009437 -0.33615270
a 1.0709720 Node 145.40926 +0.33605442 +0.88572732
e 0.1170984 Incl. 5.74005 +0.05735861 +0.32013820
P 1.11 H 23.8...
|
Blobrana
|
1
|
|
|
|
|
Asteroid 2012 BD27
(Preview)
Orbital elements:
2012 BD27 Earth MOID = 0.4639 AU
Epoch 2012 Mar. 14.0 TT = JDT 2456000.5 MPC
M 355.68911 (2000.0) P Q
n 0.25695302 Peri. 60.06276 -0.81773772 +0.10634003
a 2.4503807 Node 120.01616 -0.12984992 -0.99153279
e 0.4817779 Incl. 40.79091 +0.56075308 -0.07452870
P 3.84 H 19.8...
|
Blobrana
|
0
|
|
|
|
|
Asteroid 2012 BE27
(Preview)
Orbital elements:
2012 BE27 Earth MOID = 0.0153 AU
Epoch 2012 Mar. 14.0 TT = JDT 2456000.5 MPC
M 29.94160 (2000.0) P Q
n 0.35794440 Peri. 157.92636 +0.11765121 -0.97003583
a 1.9645315 Node 284.80380 +0.87508300 +0.20246712
e 0.5032602 Incl. 12.70167 +0.46945494 -0.13430394
P 2.75 H 23.5...
|
Blobrana
|
0
|
|
|
|
|
Asteroid 2012 BF27
(Preview)
Orbital elements:
2012 BF27 Earth MOID = 0.0006 AU
Epoch 2012 Mar. 14.0 TT = JDT 2456000.5 MPC
M 27.39043 (2000.0) P Q
n 0.30907903 Peri. 308.17238 +0.35986012 -0.92512526
a 2.1664884 Node 120.32389 +0.89386339 +0.30467648
e 0.6124284 Incl. 8.05899 +0.26741154 +0.22652926
P 3.19 H 26.1 G...
|
Blobrana
|
0
|
|
|
|
|
Asteroid 2012 BR23
(Preview)
Orbital elements:
2012 BR23 Earth MOID = 0.2147 AU
Epoch 2012 Mar. 14.0 TT = JDT 2456000.5 MPC
M 325.76326 (2000.0) P Q
n 0.51066533 Peri. 108.84090 -0.82321199 +0.51670428
a 1.5501669 Node 102.89526 -0.56772721 -0.75125315
e 0.2774686 Incl. 13.96494 +0.00279967 -0.41065239
P 1.93 H 21....
|
Blobrana
|
0
|
|
|
|
|
Asteroid 2012 BT23
(Preview)
Orbital elements:
2012 BT23 PHA, Earth MOID = 0.0492 AU
Epoch 2012 Mar. 14.0 TT = JDT 2456000.5 MPC
M 346.04466 (2000.0) P Q
n 0.36171010 Peri. 43.04462 -0.70041014 +0.71370692
a 1.9508728 Node 182.52552 -0.69010929 -0.67966721
e 0.5944961 Incl. 9.05294 -0.18213951 -0.16933672
P 2.72 H 1...
|
Blobrana
|
1
|
|
|
|
|
Asteroid 2012 BN11
(Preview)
Orbital elements:
2012 BN11 PHA, Earth MOID = 0.0228 AU
Epoch 2012 Mar. 14.0 TT = JDT 2456000.5 MPC
M 342.13729 (2000.0) P Q
n 0.57326800 Peri. 66.09817 -0.76001348 +0.64916562
a 1.4351510 Node 154.34655 -0.61931204 -0.70892651
e 0.3653804 Incl. 4.11159 -0.19705865 -0.27569403
P 1.72 H 2...
|
Blobrana
|
1
|
|
|
|
|
Asteroid 2012 BK14
(Preview)
Orbital elements:
2012 BK14 Earth MOID = 0.0020 AU
Epoch 2012 Mar. 14.0 TT = JDT 2456000.5 MPC
M 137.50403 (2000.0) P Q
n 1.00712746 Peri. 254.93596 +0.97126814 -0.23681545
a 0.9857038 Node 118.75784 +0.22738116 +0.89414313
e 0.1992277 Incl. 1.54216 +0.07025671 +0.38003486
P 0.98 H 27.4...
|
Blobrana
|
0
|
|
|
|
|
Asteroid 2012 BJ14
(Preview)
rbital elements:
2012 BJ14 Earth MOID = 0.0009 AU
Epoch 2012 Jan. 14.0 TT = JDT 2455940.5 MPC
M 14.87974 (2000.0) P Q
n 0.33657441 Peri. 84.71167 +0.91764084 -0.38493869
a 2.0468310 Node 297.89658 +0.30575826 +0.84263245
e 0.7412297 Incl. 6.41725 +0.25386447 +0.37655380
P 2.93 H 24.5 G 0....
|
Blobrana
|
0
|
|
|
|
|
Asteroid 2012 BG14
(Preview)
Orbital elements:
2012 BG14 Earth MOID = 0.0311 AU
Epoch 2012 Mar. 14.0 TT = JDT 2456000.5 MPC
M 62.51491 (2000.0) P Q
n 0.56904072 Peri. 275.23299 +0.77799304 -0.59187907
a 1.4422498 Node 121.22865 +0.62825377 +0.73028699
e 0.4894525 Incl. 14.26662 +0.00490227 +0.34111594
P 1.73 H 24.9...
|
Blobrana
|
0
|
|
|
|
|
Asteroid 2012 BF14
(Preview)
Orbital elements:
2012 BF14 Earth MOID = 0.0787 AU
Epoch 2012 Mar. 14.0 TT = JDT 2456000.5 MPC
M 31.69853 (2000.0) P Q
n 0.29542772 Peri. 289.59918 +0.55382426 -0.82476947
a 2.2327249 Node 126.24295 +0.80711008 +0.49808782
e 0.5843712 Incl. 8.13784 +0.20457764 +0.26770103
P 3.34 H 23.3 G...
|
Blobrana
|
0
|
|
|
|
|
Asteroid 2012 BE14
(Preview)
Orbital elements:
2012 BE14 Earth MOID = 0.2831 AU
Epoch 2012 Mar. 14.0 TT = JDT 2456000.5 MPC
M 31.01368 (2000.0) P Q
n 0.59699216 Peri. 0.55409 -0.50742580 -0.79565057
a 1.3968731 Node 119.98066 +0.78911359 -0.58330304
e 0.0931907 Incl. 22.45477 +0.34614853 +0.16339441
P 1.65 H 22.6 G 0...
|
Blobrana
|
0
|
|
|
|
|
Asteroid 2012 BL14
(Preview)
Orbital elements:
2012 BL14 Earth MOID = 0.0014 AU
Epoch 2012 Mar. 14.0 TT = JDT 2456000.5 MPC
M 44.19800 (2000.0) P Q
n 0.43524277 Peri. 269.66712 +0.86595638 -0.48930296
a 1.7244410 Node 119.62530 +0.49300869 +0.80042361
e 0.6537502 Incl. 6.83488 +0.08403561 +0.34627251
P 2.26 H 28.2 G...
|
Blobrana
|
0
|
|
|
|
|
Asteroid 2012 BH14
(Preview)
Orbital elements:
2012 BH14 Earth MOID = 0.1713 AU
Epoch 2012 Mar. 14.0 TT = JDT 2456000.5 MPC
M 46.41637 (2000.0) P Q
n 0.64867110 Peri. 167.06206 -0.27747556 -0.87843180
a 1.3216598 Node 297.84675 +0.83762105 -0.02286215
e 0.1286285 Incl. 26.10448 +0.47052979 -0.47732054
P 1.52 H 24.2...
|
Blobrana
|
0
|
|
|
|
|
Asteroid 2012 BZ13
(Preview)
Orbital elements:
2012 BZ13 Earth MOID = 0.0238 AU
Epoch 2012 Mar. 14.0 TT = JDT 2456000.5 MPC
M 55.09723 (2000.0) P Q
n 0.72981352 Peri. 157.18400 -0.12117280 -0.96091498
a 1.2217850 Node 298.96718 +0.86119412 +0.02293264
e 0.1852245 Incl. 16.52954 +0.49362114 -0.27589217
P 1.35 H 26.0...
|
Blobrana
|
0
|
|
|